{"data":{"norad_id":65673,"epoch":"2026-09-19T09:06:02.600928Z","epoch_age_seconds":205371,"freshness":"STALE","line1":"1 65673U 25211X   26262.37919677  .00015646  00000+0  48586-3 0  9990","line2":"2 65673  97.2847 302.6612 0001273 105.8830 254.2553 15.33451362 56352","mean_motion":15.33451362,"eccentricity":0.0001273,"inclination_deg":97.2847,"raan_deg":302.6612,"arg_perigee_deg":105.883,"mean_anomaly_deg":254.2553,"bstar":0.00048586,"rev_number":5635,"period_min":93.905815057732,"perigee_km":464.65304763104,"apogee_km":466.3954437842,"semimajor_km":6843.6612457076,"source":"CELESTRAK","updated_at":"2026-09-21T09:00:35.683734Z"}}